When you browse on this site, cookies collect data to enhance your experience and personalize the content and advertising you see.
Visit our Privacy Policy to learn more. By continuing to use the site, you agree to this use of cookies and data.
  • In Portugal
  • List of Countries
  • For 7 days
  • Water Temperature
  • Satellite Maps
  • Weather Map
  • Weather Widgets
  • user-avatar
    Login

    Hourly Weather Czarnocin

    Today, 25 March, Monday

    Time Temperature Precipitation Wind Pressure Humidity
    00:00 +8°C° 0.4 mm 1 mps 741 mmHg 62%
    01:00 +8°C° 0 mm 1 mps 740 mmHg 68%
    02:00 +7°C° 0.1 mm 1 mps 740 mmHg 71%
    03:00 +6°C° 0.1 mm 2 mps 739 mmHg 73%
    04:00 +6°C° 0.1 mm 2 mps 739 mmHg 76%
    05:00 +6°C° 0 mm 2 mps 739 mmHg 74%
    06:00 +6°C° 0 mm 2 mps 739 mmHg 72%
    07:00 +5°C° 0 mm 3 mps 738 mmHg 70%
    08:00 +7°C° 0 mm 3 mps 738 mmHg 63%
    09:00 +7°C° 0 mm 4 mps 738 mmHg 56%
    10:00 +8°C° 0 mm 4 mps 738 mmHg 49%
    11:00 +10°C° 0 mm 4 mps 737 mmHg 47%
    12:00 +9°C° 0 mm 5 mps 737 mmHg 44%
    13:00 +9°C° 0 mm 5 mps 736 mmHg 41%
    14:00 +9°C° 0.1 mm 5 mps 736 mmHg 44%
    15:00 +8°C° 0.1 mm 5 mps 736 mmHg 46%
    16:00 +8°C° 0.1 mm 5 mps 736 mmHg 49%
    17:00 +7°C° 0.2 mm 4 mps 737 mmHg 54%
    18:00 +6°C° 0.2 mm 4 mps 737 mmHg 59%
    19:00 +5°C° 0.2 mm 4 mps 738 mmHg 64%
    20:00 +5°C° 0.1 mm 4 mps 738 mmHg 68%
    21:00 +4°C° 0.1 mm 4 mps 739 mmHg 73%
    22:00 +3°C° 0.1 mm 4 mps 739 mmHg 77%
    23:00 +3°C° 0.1 mm 4 mps 740 mmHg 79%

    Tomorrow, 26 March, Tuesday

    Time Temperature Precipitation Wind Pressure Humidity
    00:00 +3°C° 0.1 mm 4 mps 740 mmHg 82%
    01:00 +1°C° 0.1 mm 4 mps 741 mmHg 84%
    02:00 +1°C° 0.1 mm 4 mps 741 mmHg 85%
    03:00 +1°C° 0.1 mm 4 mps 742 mmHg 86%
    04:00 +1°C° 0.1 mm 4 mps 742 mmHg 87%
    05:00 +1°C° 0 mm 4 mps 743 mmHg 85%
    06:00 +1°C° 0 mm 4 mps 743 mmHg 83%
    07:00 +1°C° 0 mm 5 mps 744 mmHg 81%
    08:00 +2°C° 0 mm 5 mps 744 mmHg 74%
    09:00 +3°C° 0 mm 5 mps 744 mmHg 67%
    10:00 +5°C° 0 mm 6 mps 744 mmHg 60%
    11:00 +5°C° 0 mm 6 mps 744 mmHg 56%
    12:00 +6°C° 0 mm 7 mps 743 mmHg 53%
    13:00 +6°C° 0 mm 8 mps 743 mmHg 50%
    14:00 +6°C° 0.1 mm 8 mps 743 mmHg 49%
    15:00 +6°C° 0.1 mm 9 mps 742 mmHg 49%
    16:00 +6°C° 0.1 mm 9 mps 742 mmHg 48%
    17:00 +5°C° 0.1 mm 9 mps 743 mmHg 53%
    18:00 +4°C° 0.1 mm 8 mps 743 mmHg 58%
    19:00 +1°C° 0.1 mm 8 mps 743 mmHg 63%
    20:00 +2°C° 0.1 mm 7 mps 744 mmHg 64%
    21:00 +2°C° 0.1 mm 7 mps 745 mmHg 65%
    22:00 +2°C° 0.1 mm 7 mps 746 mmHg 67%
    23:00 0°C° 0 mm 5 mps 746 mmHg 64%

    Day after tomorrow, 27 March, Wednesday

    Time Temperature Precipitation Wind Pressure Humidity
    00:00 -1°C° 0 mm 4 mps 746 mmHg 62%
    01:00 -1°C° 0 mm 3 mps 747 mmHg 60%
    02:00 -2°C° 0 mm 3 mps 747 mmHg 62%
    03:00 -2°C° 0 mm 3 mps 747 mmHg 64%
    04:00 -4°C° 0 mm 3 mps 748 mmHg 65%
    05:00 -2°C° 0 mm 3 mps 748 mmHg 62%
    06:00 -1°C° 0 mm 3 mps 749 mmHg 59%
    07:00 -1°C° 0 mm 3 mps 749 mmHg 56%
    08:00 +1°C° 0 mm 3 mps 749 mmHg 49%
    09:00 +2°C° 0 mm 3 mps 750 mmHg 42%
    10:00 +4°C° 0 mm 3 mps 750 mmHg 36%
    11:00 +5°C° 0 mm 3 mps 750 mmHg 34%
    12:00 +7°C° 0 mm 3 mps 750 mmHg 31%
    13:00 +8°C° 0 mm 3 mps 750 mmHg 29%
    14:00 +8°C° 0 mm 3 mps 750 mmHg 33%
    15:00 +8°C° 0 mm 3 mps 750 mmHg 36%
    16:00 +8°C° 0 mm 3 mps 750 mmHg 40%
    17:00 +7°C° 0 mm 3 mps 750 mmHg 47%
    18:00 +6°C° 0 mm 2 mps 750 mmHg 55%
    19:00 +5°C° 0 mm 2 mps 750 mmHg 62%
    20:00 +6°C° 0.1 mm 1 mps 751 mmHg 65%
    21:00 +6°C° 0.1 mm 1 mps 751 mmHg 67%
    22:00 +6°C° 0.1 mm 1 mps 752 mmHg 69%
    23:00 +6°C° 0.1 mm 1 mps 752 mmHg 71%

    28 March, Thursday

    Time Temperature Precipitation Wind Pressure Humidity
    00:00 +5°C° 0.1 mm 1 mps 752 mmHg 74%
    01:00 +4°C° 0.1 mm 2 mps 752 mmHg 76%
    02:00 +4°C° 0 mm 2 mps 752 mmHg 77%
    03:00 +5°C° 0 mm 1 mps 752 mmHg 78%
    04:00 +5°C° 0 mm 1 mps 752 mmHg 80%
    05:00 +4°C° 0 mm 2 mps 752 mmHg 79%
    06:00 +4°C° 0 mm 2 mps 752 mmHg 79%
    07:00 +5°C° 0 mm 2 mps 752 mmHg 78%
    08:00 +6°C° 0 mm 2 mps 753 mmHg 74%
    09:00 +8°C° 0 mm 2 mps 753 mmHg 70%
    10:00 +9°C° 0 mm 2 mps 753 mmHg 66%
    11:00 +9°C° 0.2 mm 2 mps 753 mmHg 66%
    12:00 +9°C° 0.2 mm 2 mps 753 mmHg 67%
    13:00 +10°C° 0.2 mm 2 mps 753 mmHg 67%
    14:00 +10°C° 0.3 mm 2 mps 753 mmHg 68%
    15:00 +10°C° 0.3 mm 2 mps 752 mmHg 68%
    16:00 +10°C° 0.3 mm 2 mps 752 mmHg 68%
    17:00 +10°C° 0.1 mm 1 mps 753 mmHg 73%
    18:00 +9°C° 0.1 mm 1 mps 753 mmHg 77%
    19:00 +7°C° 0.1 mm 0 mps 753 mmHg 82%
    20:00 +6°C° 0 mm 0 mps 753 mmHg 84%
    21:00 +6°C° 0 mm 0 mps 753 mmHg 86%
    22:00 +5°C° 0 mm 0 mps 754 mmHg 88%
    23:00 +6°C° 0 mm 1 mps 754 mmHg 89%

    29 March, Friday

    Time Temperature Precipitation Wind Pressure Humidity
    00:00 +6°C° 0 mm 1 mps 754 mmHg 90%
    01:00 +6°C° 0 mm 1 mps 754 mmHg 91%
    02:00 +5°C° 0 mm 1 mps 754 mmHg 91%
    03:00 +5°C° 0 mm 1 mps 754 mmHg 92%
    04:00 +5°C° 0 mm 1 mps 754 mmHg 93%
    05:00 +6°C° 0 mm 1 mps 754 mmHg 92%
    06:00 +6°C° 0 mm 1 mps 754 mmHg 90%
    07:00 +6°C° 0 mm 1 mps 754 mmHg 89%
    08:00 +8°C° 0 mm 1 mps 754 mmHg 81%
    09:00 +9°C° 0 mm 2 mps 754 mmHg 74%
    10:00 +10°C° 0 mm 2 mps 754 mmHg 66%
    11:00 +12°C° 0 mm 2 mps 754 mmHg 62%
    12:00 +12°C° 0 mm 2 mps 753 mmHg 59%
    13:00 +13°C° 0 mm 2 mps 753 mmHg 55%
    14:00 +13°C° 0 mm 2 mps 753 mmHg 56%
    15:00 +13°C° 0 mm 2 mps 752 mmHg 57%
    16:00 +12°C° 0 mm 2 mps 752 mmHg 58%
    17:00 +10°C° 0 mm 2 mps 752 mmHg 62%
    18:00 +9°C° 0 mm 2 mps 752 mmHg 67%
    19:00 +9°C° 0 mm 1 mps 752 mmHg 72%
    20:00 +8°C° 0 mm 1 mps 752 mmHg 73%
    21:00 +8°C° 0 mm 1 mps 752 mmHg 75%
    22:00 +7°C° 0 mm 1 mps 752 mmHg 77%
    23:00 +7°C° 0 mm 1 mps 752 mmHg 79%

    30 March, Saturday

    Time Temperature Precipitation Wind Pressure Humidity
    00:00 +7°C° 0 mm 1 mps 751 mmHg 80%
    01:00 +6°C° 0 mm 1 mps 751 mmHg 81%
    02:00 +6°C° 0 mm 1 mps 751 mmHg 82%
    03:00 +6°C° 0 mm 1 mps 751 mmHg 84%
    04:00 +5°C° 0 mm 1 mps 751 mmHg 86%
    05:00 +6°C° 0 mm 1 mps 751 mmHg 83%
    06:00 +7°C° 0 mm 1 mps 751 mmHg 80%
    07:00 +7°C° 0 mm 1 mps 750 mmHg 78%
    08:00 +9°C° 0 mm 1 mps 750 mmHg 71%
    09:00 +11°C° 0 mm 1 mps 750 mmHg 64%
    10:00 +12°C° 0 mm 1 mps 750 mmHg 57%
    11:00 +13°C° 0 mm 2 mps 749 mmHg 53%
    12:00 +14°C° 0 mm 2 mps 749 mmHg 48%
    13:00 +15°C° 0 mm 2 mps 748 mmHg 44%
    14:00 +16°C° 0 mm 2 mps 747 mmHg 43%
    15:00 +16°C° 0 mm 2 mps 747 mmHg 42%
    16:00 +16°C° 0 mm 2 mps 746 mmHg 40%
    17:00 +14°C° 0 mm 1 mps 746 mmHg 45%
    18:00 +13°C° 0 mm 1 mps 746 mmHg 49%
    19:00 +11°C° 0 mm 1 mps 745 mmHg 53%
    20:00 +11°C° 0 mm 1 mps 745 mmHg 55%
    21:00 +10°C° 0 mm 1 mps 745 mmHg 57%
    22:00 +10°C° 0 mm 1 mps 745 mmHg 59%
    23:00 +8°C° 0 mm 2 mps 744 mmHg 61%
    Show more